This is the latest recevied weather packets stored in our database for station/object WW6Q. If no packets are shown the sender has not sent any weather packets the latest 10 day(s).
| Time | Temp. | Humidity | Pressure | Rain* | Wind** | Luminosity | Snow |
|---|---|---|---|---|---|---|---|
| 1788218557 | 26.67° C | 81% | 1014.8 hPa | 0 mm | - | 6 W/m² | - |
| 1788218253 | 26.67° C | 81% | 1015.1 hPa | 0 mm | - | 8 W/m² | - |
| 1788217949 | 26.67° C | 81% | 1015.3 hPa | 0 mm | - | 10 W/m² | - |
| 1788217644 | 26.67° C | 81% | 1015.2 hPa | 0 mm | - | 14 W/m² | - |
| 1788217339 | 26.67° C | 81% | 1015.4 hPa | 0 mm | - | 23 W/m² | - |
| 1788217038 | 26.67° C | 82% | 1015.5 hPa | 0 mm | - | 32 W/m² | - |
| 1788216734 | 26.67° C | 82% | 1015.7 hPa | 0 mm | - | 30 W/m² | - |
| 1788216429 | 27.22° C | 81% | 1015.7 hPa | 0 mm | - | 19 W/m² | - |
| 1788216124 | 27.22° C | 80% | 1015.7 hPa | 0 mm | - | 21 W/m² | - |
| 1788215819 | 27.22° C | 78% | 1015.4 hPa | 0 mm | - | 26 W/m² | - |
| 1788215516 | 27.22° C | 78% | 1015.3 hPa | 0 mm | - | 21 W/m² | - |
| 1788215211 | 27.78° C | 78% | 1015.5 hPa | 0 mm | - | 23 W/m² | - |
| 1788214907 | 27.78° C | 77% | 1015.2 hPa | 0 mm | - | 42 W/m² | - |
| 1788214602 | 27.78° C | 75% | 1015.3 hPa | 0 mm | - | 52 W/m² | - |
| 1788214297 | 27.78° C | 74% | 1015.2 hPa | 0 mm | - | 37 W/m² | - |
| 1788213992 | 27.78° C | 75% | 1015.3 hPa | 0 mm | - | 45 W/m² | - |
| 1788213687 | 27.78° C | 76% | 1015.4 hPa | 0 mm | - | 61 W/m² | - |
| 1788213383 | 27.78° C | 76% | 1015.5 hPa | 0 mm | - | 73 W/m² | - |
| 1788213078 | 27.78° C | 75% | 1015.3 hPa | 0 mm | - | 108 W/m² | - |
| 1788212776 | 28.33° C | 73% | 1015.5 hPa | 0 mm | - | 102 W/m² | - |
| 1788212472 | 28.33° C | 72% | 1015.2 hPa | 0 mm | - | 118 W/m² | - |
| 1788212169 | 28.33° C | 73% | 1015.2 hPa | 0 mm | - | 162 W/m² | - |
| 1788211863 | 28.89° C | 67% | 1015.2 hPa | 0 mm | - | 181 W/m² | - |
| 1788211559 | 28.33° C | 72% | 1015.4 hPa | 0 mm | - | 186 W/m² | - |
| 1788211255 | 28.33° C | 72% | 1015.1 hPa | 0 mm | - | 145 W/m² | - |
* Rain latest hour (hover to see other rain measurements)
** Current wind speed in m/s (hover to see current wind gust speed)